Worcester, MA

5:44 PM EDT on July 22, 2017 (GMT -0400)
Worcester Regional

Weather History for KORH - July, 2014

Change the Weather History Date:

Wednesday, July 2, 2014

  Actual Average Record
Temperature  
Mean Temperature 78 °F 69 °F  
Max Temperature 88 °F 78 °F 97 °F (1901)
Min Temperature 68 °F 60 °F 46 °F (2001)
Degree Days  
Heating Degree Days 0 1  
Month to date heating degree days 0 2  
Since 1 June heating degree days 45 85  
Since 1 July heating degree days 0 2  
Cooling Degree Days 13 5  
Month to date cooling degree days 23 10  
Year to date cooling degree days 115 116  
Since 1 June cooling degree days 107 94  
Growing Degree Days 28 (Base 50)    
Moisture  
Dew Point 69 °F    
Average Humidity 75    
Maximum Humidity 90    
Minimum Humidity 59    
Precipitation  
Precipitation 0.16 in 0.12 in 1.79 in (1986)
Month to date precipitation 0.16 0.24  
Year to date precipitation 22.91 23.66  
Sea Level Pressure  
Sea Level Pressure 29.91 in    
Wind  
Wind Speed 12 mph (SW)    
Max Wind Speed 22 mph    
Max Gust Speed 28 mph    
Visibility 10 miles    
Events Rain , Thunderstorm    
T = Trace of Precipitation, MM = Missing Value Source: NWS Daily Summary

Daily Weather History Graph

Daily Weather History Graph

Search for Another Location

Airport or City:

Trip Planner

Search our weather history database for the weather conditions in past years. The results will help you decide how hot, cold, wet, or windy it might be!

Date:

Astronomy

Jul. 02, 2014 Rise Set
Actual Time 5:15 AM EDT 8:27 PM EDT
Civil Twilight 4:40 AM EDT 9:02 PM EDT
Nautical Twilight 3:56 AM EDT 9:46 PM EDT
Astronomical Twilight 3:02 AM EDT 10:39 PM EDT
Moon 10:21 AM EDT (7/2) 11:12 PM EDT (7/2)
Length of Visible Light 16h 21m
Length of Day
15h 12m
Waxing Crescent, 24% of the Moon is Illuminated
Jul 2
Waxing Crescent
Jul 5
First Quarter
Jul 12
Full
Jul 18
Last Quarter
Jul 26
New

Hourly Weather History & Observations

Time (EDT) Temp. Heat Index Dew Point Humidity Pressure Visibility Wind Dir Wind Speed Gust Speed Precip Events Conditions
12:54 AM 71.1 °F - 64.0 °F 78% 29.85 in 10.0 mi SW 10.4 mph - N/A   Clear
1:54 AM 69.1 °F - 64.0 °F 84% 29.86 in 10.0 mi SW 9.2 mph - N/A   Clear
2:54 AM 69.1 °F - 64.0 °F 84% 29.87 in 10.0 mi SW 11.5 mph - N/A   Clear
3:54 AM 68.0 °F - 64.9 °F 90% 29.88 in 10.0 mi SW 9.2 mph - N/A   Clear
4:54 AM 68.0 °F - 64.9 °F 90% 29.88 in 10.0 mi SW 11.5 mph - N/A   Clear
5:54 AM 69.1 °F - 66.0 °F 90% 29.89 in 10.0 mi SW 9.2 mph - N/A   Overcast
6:54 AM 70.0 °F - 66.9 °F 90% 29.91 in 10.0 mi SW 11.5 mph - N/A   Clear
7:15 AM 71.1 °F - 66.9 °F 87% 29.92 in 10.0 mi SW 12.7 mph - N/A   Partly Cloudy
7:54 AM 72.0 °F - 68.0 °F 87% 29.91 in 10.0 mi SW 12.7 mph - N/A   Clear
8:54 AM 75.9 °F - 69.1 °F 79% 29.91 in 10.0 mi SW 9.2 mph - N/A   Clear
9:54 AM 78.1 °F - 70.0 °F 76% 29.91 in 10.0 mi SSW 10.4 mph - N/A   Clear
10:54 AM 82.0 °F 86.3 °F 71.1 °F 69% 29.92 in 10.0 mi SW 10.4 mph - N/A   Clear
11:54 AM 84.9 °F 91.4 °F 73.0 °F 67% 29.93 in 10.0 mi South 11.5 mph - N/A   Clear
12:54 PM 86.0 °F 93.0 °F 73.0 °F 65% 29.91 in 10.0 mi South 12.7 mph - N/A   Clear
1:33 PM 86.0 °F 92.2 °F 72.0 °F 63% 29.91 in 10.0 mi South 15.0 mph 21.9 mph N/A Thunderstorm Overcast
1:44 PM 87.1 °F 93.6 °F 72.0 °F 61% 29.91 in 10.0 mi South 18.4 mph 25.3 mph N/A Thunderstorm Mostly Cloudy
1:54 PM 87.1 °F 93.6 °F 72.0 °F 61% 29.90 in 10.0 mi South 17.3 mph - N/A Thunderstorm Mostly Cloudy
2:02 PM 87.1 °F 93.6 °F 72.0 °F 61% 29.91 in 10.0 mi South 16.1 mph 25.3 mph N/A   Scattered Clouds
2:54 PM 86.0 °F 92.2 °F 72.0 °F 63% 29.88 in 10.0 mi South 19.6 mph 27.6 mph N/A   Mostly Cloudy
3:54 PM 84.0 °F 89.6 °F 72.0 °F 67% 29.89 in 10.0 mi SSW 15.0 mph 25.3 mph N/A   Scattered Clouds
4:54 PM 82.4 °F 87.2 °F 71.6 °F 70% 29.93 in 10.0 mi SW 17.3 mph 24.2 mph N/A   Partly Cloudy
5:54 PM 80.1 °F 83.2 °F 70.0 °F 71% 29.94 in 10.0 mi SSW 9.2 mph - N/A   Mostly Cloudy
6:19 PM 80.1 °F 83.2 °F 70.0 °F 71% 29.97 in 10.0 mi SW 11.5 mph - N/A Thunderstorm Mostly Cloudy
6:54 PM 75.0 °F - 68.0 °F 79% 29.96 in 10.0 mi West 9.2 mph - 0.00 in Thunderstorm Mostly Cloudy
7:15 PM 73.0 °F - 68.0 °F 84% 29.97 in 10.0 mi WSW 12.7 mph - 0.00 in Rain Light Rain
7:54 PM 71.1 °F - 68.0 °F 90% 29.94 in 4.0 mi West 10.4 mph - 0.09 in Rain Rain
8:54 PM 70.0 °F - 66.9 °F 90% 29.91 in 10.0 mi SW 9.2 mph - 0.07 in Rain Light Rain
9:54 PM 69.1 °F - 66.9 °F 93% 29.92 in 10.0 mi SW 11.5 mph - 0.00 in   Clear
10:54 PM 69.1 °F - 66.9 °F 93% 29.94 in 10.0 mi WSW 12.7 mph - N/A   Clear
11:54 PM 69.1 °F - 66.9 °F 93% 29.93 in 10.0 mi WSW 9.2 mph - N/A   Clear